This is the latest recevied weather packets stored in our database for station/object WE8M. If no packets are shown the sender has not sent any weather packets the latest 10 day(s).
| Time | Temp. | Humidity | Pressure | Rain* | Wind** | Luminosity | Snow |
|---|---|---|---|---|---|---|---|
| 1777837323 | 17.22° C | 41% | 1016.3 hPa | 0 mm | - | - | - |
| 1777837019 | 16.67° C | 37% | 1016.5 hPa | 0 mm | - | - | - |
| 1777836715 | 17.22° C | 37% | 1016.6 hPa | 0 mm | - | - | - |
| 1777836411 | 16.67° C | 38% | 1016.6 hPa | 0 mm | - | - | - |
| 1777836107 | 16.67° C | 35% | 1016.6 hPa | 0 mm | - | - | - |
| 1777835803 | 16.11° C | 40% | 1016.7 hPa | 0 mm | - | - | - |
| 1777835501 | 16.11° C | 34% | 1016.8 hPa | 0 mm | - | - | - |
| 1777835198 | 16.67° C | 37% | 1017 hPa | 0 mm | - | - | - |
| 1777834894 | 16.67° C | 39% | 1016.9 hPa | 0 mm | - | - | - |
| 1777834591 | 16.67° C | 37% | 1017.3 hPa | 0 mm | - | - | - |
| 1777834286 | 16.67° C | 40% | 1017.2 hPa | 0 mm | - | - | - |
| 1777833981 | 16.67° C | 39% | 1017.5 hPa | 0 mm | - | - | - |
| 1777833678 | 16.11° C | 43% | 1017.4 hPa | 0 mm | - | - | - |
| 1777833375 | 15.56° C | 43% | 1017.6 hPa | 0 mm | - | - | - |
| 1777833072 | 16.11° C | 37% | 1017.5 hPa | 0 mm | - | - | - |
| 1777832771 | 15° C | 43% | 1017.7 hPa | 0 mm | - | - | - |
| 1777832468 | 15.56° C | 35% | 1017.6 hPa | 0 mm | - | - | - |
| 1777832165 | 15.56° C | 41% | 1017.6 hPa | 0 mm | - | - | - |
| 1777831861 | 15.56° C | 41% | 1017.7 hPa | 0 mm | - | - | - |
| 1777831559 | 15.56° C | 42% | 1017.8 hPa | 0 mm | - | - | - |
| 1777831256 | 15.56° C | 43% | 1017.8 hPa | 0 mm | - | - | - |
| 1777830953 | 15.56° C | 41% | 1017.9 hPa | 0 mm | - | - | - |
| 1777830650 | 15.56° C | 39% | 1018.1 hPa | 0 mm | - | - | - |
| 1777830347 | 15.56° C | 39% | 1018.3 hPa | 0 mm | - | - | - |
| 1777830044 | 15.56° C | 41% | 1018.5 hPa | 0 mm | - | - | - |
* Rain latest hour (hover to see other rain measurements)
** Current wind speed in m/s (hover to see current wind gust speed)